DW5450 Weather Reports


Display with metric or nautical units.
time (UTC)temp
F
wind
direction
speed
MPH
gust
MPH
rain 1hr
in
rain 24hr
in
rain mn
in
humidity
%
barometer
mb
20260508134600 65 317 1.0 5.0 0.00 0.00 0.00 83 1011.3
20260508133118 65 331 1.0 4.0 0.00 0.00 0.00 83 1011.3
20260508131555 64 350 1.0 4.0 0.00 0.00 0.00 84 1011.1
20260508130054 64 5 0.0 5.0 0.00 0.00 0.00 85 1011.1
20260508124554 64 321 1.0 4.0 0.00 0.00 0.00 85 1010.9
20260508123101 64 295 0.0 4.0 0.00 0.00 0.00 86 1011.0
20260508121552 64 342 0.0 4.0 0.00 0.00 0.00 86 1010.9
20260508120053 64 340 0.0 3.0 0.00 0.00 0.00 86 1010.8
20260508114548 64 340 0.0 3.0 0.00 0.00 0.00 87 1010.7
20260508113102 65 340 0.0 4.0 0.00 0.00 0.00 87 1010.6
20260508111547 65 5 0.0 2.0 0.00 0.00 0.00 86 1010.6
20260508110053 65 5 1.0 2.0 0.00 0.00 0.00 87 1010.6
20260508104543 65 5 0.0 2.0 0.00 0.00 0.00 86 1010.5
20260508103049 66 5 0.0 1.0 0.00 0.00 0.00 86 1010.5
20260508101541 66 5 0.0 1.0 0.00 0.00 0.00 86 1010.6
20260508100039 66 5 0.0 1.0 0.00 0.00 0.00 86 1010.5
20260508094538 67 5 0.0 2.0 0.00 0.00 0.00 86 1010.5
20260508093038 67 5 0.0 3.0 0.00 0.00 0.00 86 1010.5
20260508091542 66 5 0.0 3.0 0.00 0.00 0.00 86 1010.5
20260508090045 67 13 0.0 2.0 0.00 0.00 0.00 86 1010.6
20260508084533 67 13 0.0 3.0 0.00 0.00 0.00 86 1010.8
20260508083038 67 13 1.0 4.0 0.00 0.00 0.00 86 1011.0
20260508081530 67 348 0.0 3.0 0.00 0.00 0.00 86 1011.1
20260508080029 67 341 0.0 4.0 0.00 0.00 0.00 86 1011.2
20260508074536 67 106 0.0 1.0 0.00 0.00 0.00 85 1011.4
20260508073033 67 106 0.0 2.0 0.00 0.00 0.00 85 1011.5
20260508071523 68 106 0.0 1.0 0.00 0.00 0.00 84 1011.7
20260508070021 68 106 0.0 1.0 0.00 0.00 0.00 84 1011.8
20260508064519 68 106 0.0 2.0 0.00 0.00 0.00 84 1011.9
20260508063019 68 111 0.0 1.0 0.00 0.00 0.00 84 1012.0
20260508061519 68 111 0.0 0.0 0.00 0.00 0.00 83 1012.1
20260508060016 69 111 0.0 1.0 0.00 0.00 0.00 83 1012.1
20260508054517 69 111 0.0 0.0 0.00 0.00 0.00 83 1012.1
20260508053031 69 111 0.0 1.0 0.00 0.00 0.00 82 1012.0
20260508051514 69 111 0.0 2.0 0.00 0.00 0.00 82 1012.0
20260508050013 69 142 0.0 1.0 0.00 0.00 0.00 81 1012.0
20260508044512 70 142 0.0 1.0 0.00 0.00 0.00 81 1011.9
20260508043012 70 142 0.0 1.0 0.00 0.00 0.00 80 1011.9
20260508041518 71 142 0.0 0.0 0.00 0.00 0.00 79 1012.0
20260508040010 72 142 0.0 0.0 0.00 0.00 0.00 79 1012.0
20260508034510 72 142 0.0 0.0 0.00 0.00 0.00 78 1011.7
20260508033009 73 142 0.0 0.0 0.00 0.00 0.00 78 1011.7
20260508031509 73 142 0.0 0.0 0.00 0.00 0.00 77 1011.6
20260508030018 74 142 0.0 1.0 0.00 0.00 0.00 77 1011.5
20260508024509 74 142 0.0 0.0 0.00 0.00 0.00 76 1011.4
20260508023007 75 142 0.0 2.0 0.00 0.00 0.00 76 1011.2
20260508021511 75 142 0.0 2.0 0.00 0.00 0.00 75 1011.1
20260508020006 76 155 0.0 3.0 0.00 0.00 0.00 74 1010.9
20260508014506 76 175 0.0 4.0 0.00 0.00 0.00 74 1010.9
20260508013005 77 162 1.0 5.0 0.00 0.00 0.00 73 1010.8
20260508011512 77 187 2.0 8.0 0.00 0.00 0.00 73 1010.7
20260508010005 78 161 2.0 6.0 0.00 0.00 0.00 73 1010.6
20260508004504 78 113 1.0 7.0 0.00 0.00 0.00 73 1010.6
20260508003004 78 116 3.0 9.0 0.00 0.00 0.00 73 1010.6
20260508001503 79 171 3.0 7.0 0.00 0.00 0.00 72 1010.5
20260508000003 79 161 3.0 8.0 0.00 0.00 0.00 72 1010.5
20260507234502 79 157 3.0 8.0 0.00 0.00 0.00 73 1010.6
20260507233003 79 163 5.0 11.0 0.00 0.00 0.00 73 1010.6
20260507231501 79 131 4.0 10.0 0.00 0.00 0.00 73 1010.6
20260507230002 79 150 2.0 10.0 0.00 0.00 0.00 73 1010.6
20260507224601 79 120 2.0 12.0 0.00 0.00 0.00 73 1010.8
20260507223103 80 173 3.0 15.0 0.00 0.00 0.00 72 1010.8
20260507221559 80 165 4.0 11.0 0.00 0.00 0.00 73 1010.9
20260507220059 81 161 6.0 11.0 0.00 0.00 0.00 73 1010.9
20260507214607 81 139 4.0 12.0 0.00 0.00 0.00 73 1011.0
20260507213105 81 137 4.0 11.0 0.00 0.00 0.00 74 1011.1
20260507211558 81 192 6.0 11.0 0.00 0.00 0.00 73 1011.3
20260507204557 81 144 6.0 13.0 0.00 0.00 0.00 74 1011.4
20260507203056 82 190 7.0 13.0 0.00 0.00 0.00 72 1011.5
20260507201555 82 147 4.0 13.0 0.00 0.00 0.00 72 1011.7
20260507200054 82 141 5.0 14.0 0.00 0.00 0.00 73 1011.8
20260507194618 82 175 5.0 12.0 0.00 0.00 0.00 73 1011.9
20260507193055 82 120 4.0 12.0 0.00 0.00 0.00 73 1012.1
20260507191552 83 150 5.0 11.0 0.00 0.00 0.00 71 1012.2
20260507190054 83 143 4.0 12.0 0.00 0.00 0.00 70 1012.3
20260507184551 83 194 5.0 12.0 0.00 0.00 0.00 69 1012.5
20260507183050 82 219 6.0 14.0 0.00 0.00 0.00 70 1012.5
20260507181555 83 138 5.0 12.0 0.00 0.00 0.00 69 1012.5
20260507180050 83 165 5.0 14.0 0.00 0.00 0.00 67 1012.3
20260507174556 85 117 4.0 10.0 0.00 0.00 0.00 64 1012.4
20260507173116 84 167 2.0 9.0 0.00 0.00 0.00 66 1012.3
20260507171549 84 129 0.0 5.0 0.00 0.00 0.00 60 1012.3
20260507170042 83 84 1.0 4.0 0.00 0.00 0.00 62 1012.5
20260507164547 82 19 1.0 6.0 0.00 0.00 0.00 66 1012.6
20260507163034 81 5 2.0 7.0 0.00 0.00 0.00 68 1012.7
20260507161536 79 332 1.0 7.0 0.00 0.00 0.00 74 1012.7
20260507160036 77 22 1.0 4.0 0.00 0.00 0.00 77 1012.9
20260507154525 77 17 1.0 5.0 0.00 0.00 0.00 78 1012.9
20260507153022 76 309 2.0 8.0 0.00 0.00 0.00 79 1012.7
20260507151520 76 315 1.0 7.0 0.00 0.00 0.00 80 1012.7
20260507150016 75 332 2.0 9.0 0.00 0.00 0.00 82 1012.8
20260507144514 73 316 1.0 6.0 0.00 0.00 0.00 85 1012.5
20260507143018 72 312 0.0 3.0 0.00 0.00 0.00 86 1012.4
20260507141508 72 332 0.0 4.0 0.00 0.00 0.00 86 1012.5
20260507140006 71 308 0.0 1.0 0.00 0.00 0.00 86 1012.4